This is the latest recevied weather packets stored in our database for station/object KE5VT. If no packets are shown the sender has not sent any weather packets the latest 10 day(s).
| Time | Temp. | Humidity | Pressure | Rain* | Wind** | Luminosity | Snow |
|---|---|---|---|---|---|---|---|
| 1787532079 | 27.78° C | 57% | 1010.7 hPa | 0 mm | - | 0 W/m² | - |
| 1787531774 | 27.78° C | 56% | 1010.8 hPa | 0 mm | - | 0 W/m² | - |
| 1787531470 | 27.78° C | 56% | 1010.6 hPa | 0 mm | - | 0 W/m² | - |
| 1787531166 | 27.78° C | 56% | 1010.5 hPa | 0 mm | - | 0 W/m² | - |
| 1787530861 | 27.78° C | 56% | 1010.4 hPa | 0 mm | - | 0 W/m² | - |
| 1787530556 | 28.33° C | 55% | 1010.5 hPa | 0 mm | - | 0 W/m² | - |
| 1787530256 | 28.33° C | 55% | 1010.5 hPa | 0 mm | - | 1 W/m² | - |
| 1787529952 | 28.33° C | 54% | 1010.4 hPa | 0 mm | - | 1 W/m² | - |
| 1787529648 | 28.33° C | 53% | 1010.4 hPa | 0 mm | - | 2 W/m² | - |
| 1787529343 | 28.33° C | 53% | 1010.5 hPa | 0 mm | - | 3 W/m² | - |
| 1787529037 | 28.89° C | 53% | 1010.2 hPa | 0 mm | - | 7 W/m² | - |
| 1787528734 | 28.89° C | 52% | 1010.4 hPa | 0 mm | - | 8 W/m² | - |
| 1787528433 | 28.89° C | 52% | 1010.4 hPa | 0 mm | - | 10 W/m² | - |
| 1787528130 | 28.89° C | 51% | 1010.3 hPa | 0 mm | - | 12 W/m² | - |
| 1787527825 | 29.44° C | 50% | 1010.2 hPa | 0 mm | - | 15 W/m² | - |
| 1787527521 | 29.44° C | 49% | 1010.3 hPa | 0 mm | - | 17 W/m² | - |
| 1787527216 | 30° C | 49% | 1010.4 hPa | 0 mm | - | 19 W/m² | - |
| 1787526913 | 30° C | 48% | 1010.4 hPa | 0 mm | - | 21 W/m² | - |
| 1787526608 | 30° C | 48% | 1010.4 hPa | 0 mm | - | 23 W/m² | - |
| 1787526304 | 30.56° C | 47% | 1010.4 hPa | 0 mm | - | 25 W/m² | - |
| 1787526000 | 30.56° C | 45% | 1010.3 hPa | 0 mm | - | 27 W/m² | - |
| 1787525696 | 30.56° C | 44% | 1010.4 hPa | 0 mm | - | 28 W/m² | - |
| 1787525395 | 30.56° C | 45% | 1010.4 hPa | 0 mm | - | 29 W/m² | - |
| 1787525092 | 31.11° C | 44% | 1010.3 hPa | 0 mm | - | 39 W/m² | - |
| 1787524792 | 31.67° C | 46% | 1010.4 hPa | 0 mm | - | 103 W/m² | - |
* Rain latest hour (hover to see other rain measurements)
** Current wind speed in m/s (hover to see current wind gust speed)